Regional Weather Roundup
Issued by NWS

Home | Current Version | Previous Version | Text Only | Print | Product List | Glossary Off
Versions: 1 2 3 4 5 6 7 8 9 10 11 12 13 14 15 16 17 18 19 20 21 22 23 24 25 26 27 28 29 30 31 32 33 34 35 36 37 38 39 40 41 42 43 44 45 46 47 48 49 50

000
ASUS45 KCYS 270810
RWRWY

WYOMING REGIONAL WEATHER ROUNDUP
NATIONAL WEATHER SERVICE CHEYENNE WY
200 AM MDT THU APR 27 2017

NOTE:  "FAIR" INDICATES FEW OR NO CLOUDS BELOW 12,000 FEET
WITH NO SIGNIFICANT WEATHER AND/OR OBSTRUCTIONS TO VISIBILITY.

WYZ001-270900-
YELLOWSTONE NATIONAL PARK

CITY           SKY/WX    TMP DP  RH WIND       PRES   REMARKS
LK YELLOWSTONE NOT AVBL
W YELLOWSTONE  NOT AVBL

$$
WYZ002>013-054>058-071-098>099-270900-
NORTHERN WYOMING

CITY           SKY/WX    TMP DP  RH WIND       PRES   REMARKS
JACKSON        FAIR      34  32  93 E5        29.60F WCI  30
CODY           CLOUDY    37  36  96 N5        29.59F WCI  33
GREYBULL       CLOUDY    43  37  79 N9        29.56F
WORLAND        CLOUDY    43  40  89 NE6       29.55F
SHERIDAN       CLOUDY    33  30  88 NW5       29.59F WCI  29
BUFFALO        FAIR      36  28  73 SE7       29.57F WCI  30
GILLETTE       FAIR      33  32  96 SE7       29.59F WCI  27
HULETT         FAIR      32  28  86 E3        29.64F
NEWCASTLE      FAIR      30  30 100 CALM      29.64F

$$
WYZ014>020-022>026-101>103-270900-
CENTRAL WYOMING

CITY           SKY/WX    TMP DP  RH WIND       PRES   REMARKS
BIG PINEY      FAIR      30  29  96 NE8       29.62F WCI  22
PINEDALE       CLOUDY    32  32 100 NW5       29.63F FOG     WCI  27
DUBOIS         FAIR      32  28  86 NW9       29.57F WCI  24
LANDER         CLOUDY    40  33  76 NW10      29.54F WCI  33
RIVERTON       CLOUDY    41  35  79 NW18      29.55S
CASPER         CLOUDY    36  33  89 CALM      29.57F
DOUGLAS        FAIR      36  34  92 SE6       29.59F WCI  31

$$
WYZ021-027>030-104>119-270900-
SOUTHERN WYOMING

CITY           SKY/WX    TMP DP  RH WIND       PRES   REMARKS
EVANSTON       CLOUDY    34  34 100 SW14      29.67F FOG     WCI  25
KEMMERER         N/A     32  32 100 W15G25    29.66F WCI  22
FORT BRIDGER   PTSUNNY   36  35  98 W17G23    29.69F WCI  26
ROCK SPRINGS   CLOUDY    37  32  82 SW10      29.65F WCI  30
DIXON          LGT RAIN  38  35  90 SW10      29.69F WCI  30
RAWLINS        MIX PCPN  37  31  78 SW10      29.64F WCI  30
SARATOGA       CLOUDY    36  32  87 W13G18    29.65F WCI  27
LARAMIE        CLOUDY    34  31  88 S14       29.63F WCI  25
CHEYENNE       CLOUDY    39  33  79 SW20      29.63F WCI  29
TORRINGTON     FAIR      36  35  96 E7        29.60F WCI  30
PINE BLUFFS    PTSUNNY   36  36 100 S13G18    29.63F WCI  27

$$



USA.gov is the U.S. government's official web portal to all federal, state and local government web resources and services.